Cape Flattery Observation History
Time Wind Speed Temp Pressure Rel. Hum Rain
25/02:00pm SE 9-13 kts 30.3°c 1006.3 hPa 59% 0.0mm
25/01:30pm SE 10-16 kts 31.1°c 1006.7 hPa 58% 0.0mm
25/01:00pm SE 9-14 kts 30.6°c 1007.0 hPa 58% 0.0mm
25/12:30pm SSE 10-15 kts 31.0°c 1007.3 hPa 57% 0.0mm
25/12:00pm SE 10-15 kts 30.6°c 1007.6 hPa 59% 0.0mm
25/11:30am SE 10-16 kts 30.0°c 1008.1 hPa 60% 0.0mm
25/11:00am SE 10-14 kts 30.6°c 1008.1 hPa 57% 0.0mm
25/10:30am SSE 9-14 kts 30.1°c 1008.2 hPa 59% 0.0mm
25/10:00am SSE 10-14 kts 29.6°c 1008.3 hPa 60% 0.0mm
25/09:30am SE 11-17 kts 30.0°c 1008.2 hPa 61% 0.0mm
25/09:00am SE 11-16 kts 29.8°c 1008.1 hPa 63% 0.0mm
25/08:30am SSE 13-17 kts 29.0°c 1007.7 hPa 66% 0.0mm
25/08:00am SSE 12-17 kts 28.8°c 1007.4 hPa 68% 0.0mm
25/07:30am SE 11-17 kts 27.9°c 1007.1 hPa 70% 0.0mm
25/07:00am SE 11-17 kts 27.1°c 1006.8 hPa 74% 0.0mm
25/06:30am SE 11-15 kts 26.9°c 1006.7 hPa 72% 0.0mm
25/06:00am SE 10-14 kts 26.7°c 1006.2 hPa 75% 0.0mm
25/05:30am SE 6-8 kts 26.3°c 1006.8 hPa 75% 0.0mm
25/05:00am SE 6-9 kts 26.5°c 1006.9 hPa 76% 0.0mm
25/04:30am SSE 6-8 kts 26.4°c 1006.8 hPa 77% 0.0mm
25/04:00am SSE 7-9 kts 26.6°c 1006.8 hPa 76% 0.0mm
25/03:30am SSE 8-11 kts 26.9°c 1006.7 hPa 75% 0.0mm
25/03:00am SSE 10-14 kts 27.0°c 1006.6 hPa 76% 0.0mm
25/02:30am SSE 10-13 kts 27.0°c 1006.7 hPa 76% 0.0mm
25/02:00am SE 9-12 kts 27.1°c 1007.2 hPa 75% 0.0mm
25/01:30am SE 9-12 kts 27.2°c 1007.3 hPa 76% 0.0mm
25/01:00am SE 10-13 kts 27.3°c 1007.7 hPa 75% 0.0mm
25/12:30am SE 10-14 kts 27.3°c 1008.2 hPa 76% 0.0mm
25/12:00am SE 10-14 kts 27.4°c 1008.5 hPa 77% 0.0mm
Time Wind Speed Temp Pressure Rel. Hum Rain
24/11:30pm SE 10-12 kts 27.4°c 1008.9 hPa 77% 0.0mm
24/11:00pm SE 7-11 kts 27.3°c 1009.0 hPa 76% 0.0mm
24/10:30pm SE 8-11 kts 27.3°c 1008.9 hPa 78% 0.0mm
24/10:00pm SE 7-11 kts 27.4°c 1008.9 hPa 78% 0.0mm
24/09:30pm SE 7-10 kts 27.2°c 1008.7 hPa 77% 0.0mm
24/09:00pm SE 8-10 kts 27.3°c 1008.5 hPa 75% 0.0mm
24/08:30pm SE 9-12 kts 27.7°c 1008.3 hPa 75% 0.0mm
24/08:00pm SE 9-13 kts 27.6°c 1008.1 hPa 74% 0.0mm
24/07:30pm SE 10-13 kts 27.7°c 1007.8 hPa 73% 0.0mm
24/07:00pm SE 10-15 kts 27.9°c 1007.5 hPa 74% 0.0mm
24/06:30pm SE 12-17 kts 28.4°c 1007.0 hPa 70% 0.0mm
24/06:00pm SSE 13-18 kts 29.1°c 1006.6 hPa 68% 0.0mm
24/05:30pm SE 15-19 kts 29.5°c 1006.0 hPa 64% 0.0mm
24/05:00pm SSE 15-19 kts 29.9°c 1005.9 hPa 62% 0.0mm
24/04:30pm SSE 15-20 kts 30.3°c 1005.9 hPa 59% 0.0mm
24/04:00pm SSE 16-20 kts 30.5°c 1006.1 hPa 58% 0.0mm
24/03:30pm SSE 15-19 kts 30.7°c 1006.3 hPa 59% 0.0mm
24/03:00pm SE 14-18 kts 31.2°c 1006.5 hPa 58% 0.0mm
24/02:30pm SSE 13-18 kts 30.4°c 1006.8 hPa 68% 0.0mm
24/02:00pm SSE 13-18 kts 31.0°c 1007.1 hPa 64% 0.0mm
24/01:30pm SSE 13-18 kts 31.8°c 1007.3 hPa 63% 0.0mm
24/01:00pm SSE 15-18 kts 31.3°c 1007.6 hPa 64% 0.0mm
24/12:30pm SSE 15-19 kts 29.8°c 1007.9 hPa 67% 0.0mm
24/12:00pm SSE 15-19 kts 30.2°c 1008.2 hPa 65% 0.0mm
24/11:30am SSE 15-19 kts 31.1°c 1008.3 hPa 66% 0.0mm
24/11:00am SSE 16-22 kts 29.5°c 1008.5 hPa 68% 0.0mm
24/10:30am SE 15-19 kts 30.5°c 1008.7 hPa 66% 0.0mm
24/10:00am SSE 13-18 kts 30.5°c 1008.9 hPa 67% 0.0mm
24/09:30am SE 13-17 kts 29.1°c 1009.1 hPa 69% 0.0mm
24/09:00am SE 12-17 kts 28.7°c 1009.1 hPa 70% 0.0mm
24/08:30am SE 12-16 kts 28.2°c 1008.8 hPa 72% 0.0mm
24/08:00am SE 12-16 kts 27.9°c 1008.5 hPa 74% 0.0mm
24/07:30am SSE 10-14 kts 28.0°c 1008.3 hPa 75% 0.0mm
24/07:00am SE 11-16 kts 27.6°c 1008.1 hPa 73% 0.0mm
24/06:30am SE 10-15 kts 27.1°c 1007.7 hPa 75% 0.0mm
24/06:00am SE 9-15 kts 26.8°c 1007.4 hPa 75% 0.0mm
24/05:30am SE 11-17 kts 27.0°c 1007.1 hPa 74% 0.0mm
24/05:00am SE 10-16 kts 26.9°c 1007.0 hPa 75% 0.0mm
24/04:30am SE 11-15 kts 27.1°c 1007.0 hPa 72% 0.0mm
24/04:00am SSE 11-15 kts 27.2°c 1007.2 hPa 75% 0.0mm
24/03:30am SSE 11-17 kts 27.1°c 1007.3 hPa 73% 0.0mm
24/03:00am SSE 13-18 kts 27.3°c 1007.5 hPa 74% 0.0mm
24/02:30am SSE 13-19 kts 27.3°c 1007.9 hPa 73% 0.0mm
24/02:00am SSE 11-15 kts 27.2°c 1008.1 hPa 72% 0.0mm
24/01:30am SSE 13-17 kts 27.1°c 1008.3 hPa 72% 0.0mm
24/01:00am SE 13-16 kts 27.2°c 1008.9 hPa 73% 0.0mm
24/12:30am SE 12-17 kts 27.3°c 1009.4 hPa 74% 0.0mm
24/12:00am SE 13-18 kts 27.5°c 1010.1 hPa 73% 0.0mm
Time Wind Speed Temp Pressure Rel. Hum Rain
23/11:30pm SSE 13-18 kts 27.7°c 1010.6 hPa 72% 0.0mm
23/11:00pm SE 13-19 kts 27.8°c 1010.6 hPa 71% 0.0mm
23/10:30pm SSE 15-21 kts 27.8°c 1010.3 hPa 73% 0.0mm
23/10:00pm SSE 15-21 kts 27.8°c 1010.0 hPa 73% 0.0mm
23/09:30pm SSE 14-19 kts 27.6°c 1009.5 hPa 72% 0.0mm
23/09:00pm SSE 16-23 kts 27.7°c 1009.0 hPa 72% 0.0mm
23/08:30pm SSE 14-19 kts 27.5°c 1008.7 hPa 70% 0.0mm
23/08:00pm SSE 17-23 kts 27.6°c 1008.8 hPa 70% 0.0mm
23/07:30pm SSE 15-20 kts 27.5°c 1008.7 hPa 70% 0.0mm
23/07:00pm SSE 15-21 kts 27.7°c 1008.6 hPa 67% 0.0mm
23/06:30pm SSE 15-21 kts 27.8°c 1008.1 hPa 65% 0.0mm
23/06:00pm SSE 17-23 kts 28.7°c 1007.9 hPa 62% 0.0mm
23/05:30pm SSE 17-22 kts 28.8°c 1007.5 hPa 62% 0.0mm
23/05:00pm SSE 16-22 kts 29.5°c 1007.2 hPa 58% 0.0mm
23/04:30pm SSE 18-23 kts 29.8°c 1006.9 hPa 56% 0.0mm
23/04:00pm SSE 17-24 kts 30.0°c 1006.8 hPa 56% 0.0mm
23/03:30pm SSE 18-24 kts 30.6°c 1006.8 hPa 56% 0.0mm
23/03:00pm SSE 18-26 kts 30.8°c 1007.0 hPa 53% 0.0mm
23/02:30pm SSE 17-22 kts 31.0°c 1007.2 hPa 57% 0.0mm
23/02:00pm SSE 16-22 kts 30.6°c 1007.3 hPa 57% 0.0mm
23/01:30pm SE 18-24 kts 31.3°c 1007.4 hPa 57% 0.0mm
23/01:00pm SSE 18-23 kts 31.3°c 1007.5 hPa 57% 0.0mm
23/12:30pm SE 15-21 kts 30.9°c 1007.9 hPa 55% 0.0mm
23/12:00pm SE 16-23 kts 30.8°c 1008.2 hPa 59% 0.0mm
23/11:30am SE 17-23 kts 30.5°c 1008.3 hPa 57% 0.0mm
23/11:00am SE 17-23 kts 30.8°c 1008.6 hPa 57% 0.0mm
23/10:30am SE 17-23 kts 30.6°c 1009.1 hPa 59% 0.0mm
23/10:00am SE 16-21 kts 30.3°c 1009.4 hPa 58% 0.0mm
23/09:30am SE 16-21 kts 29.7°c 1009.5 hPa 60% 0.0mm
23/09:00am SE 16-21 kts 29.7°c 1009.2 hPa 61% 0.0mm
23/08:30am SE 15-23 kts 29.3°c 1009.1 hPa 64% 0.0mm
23/08:00am SE 16-21 kts 29.2°c 1008.8 hPa 66% 0.0mm
23/07:30am SE 15-23 kts 28.4°c 1008.7 hPa 65% 0.0mm
23/07:00am SE 16-22 kts 27.8°c 1008.5 hPa 66% 0.0mm
23/06:30am SE 15-21 kts 27.3°c 1008.2 hPa 69% 0.0mm
23/06:00am SE 17-21 kts 27.2°c 1007.8 hPa 69% 0.0mm
23/05:30am SE 15-22 kts 27.2°c 1007.4 hPa 73% 0.0mm
23/05:00am SE 15-21 kts 27.1°c 1007.0 hPa 73% 0.0mm
23/04:30am SE 13-19 kts 27.1°c 1006.7 hPa 72% 0.0mm
23/04:00am SE 14-17 kts 27.1°c 1006.7 hPa 72% 0.0mm
23/03:30am SE 13-19 kts 27.0°c 1006.8 hPa 71% 0.0mm
23/03:00am SE 14-19 kts 27.2°c 1006.8 hPa 73% 0.0mm
23/02:30am SE 14-20 kts 27.1°c 1006.8 hPa 71% 0.0mm
23/02:00am SE 16-21 kts 27.4°c 1007.4 hPa 72% 0.0mm
23/01:30am SE 15-22 kts 27.6°c 1007.5 hPa 70% 0.0mm
23/01:00am SE 14-19 kts 27.5°c 1008.1 hPa 70% 0.0mm
23/12:30am SE 17-24 kts 27.8°c 1008.4 hPa 72% 0.0mm
23/12:00am SE 15-21 kts 27.9°c 1009.0 hPa 73% 0.0mm